Погода в Глотовке

Россия / Ульяновская область     53°57′17″N   46°42′04″E
темп.,
°C
ветер,
м/с
пор.,
м/с
влажн.,
%
обл.,
%
осадки,
мм/ч
давл.,
гПа
погр.,
м
16 апреля, пт
пт1601:00+11ююв2263100 0.0 101713
04:00+10юв1165100 0.0 101810
07:00+10в2258100 0.0 101833
10:00+14в3750100 0.0 1019308
13:00+18в4640100 0.0 1019789
16:00+18в4645100 0.0 1020935
19:00+14всв51068100 0.0 1020433
22:00+10всв41283100 0.0 1022369
17 апреля, сб
сб1701:00+8всв311905 0.0 1023284
04:00+6всв310935 0.0 1024227
07:00+6всв4109522 0.0 1024279
10:00+11всв58737 0.0 1023468
13:00+14всв576015 0.0 1023796
16:00+15в465413 0.0 10231169
19:00+12всв49611 0.0 1022527
22:00+8всв412644 0.0 1023347
18 апреля, вс
вс1801:00+6всв4126745 0.0 1023305
04:00+5всв41366100 0.0 1023331
07:00+5всв41365100 0.0 1023395
10:00+7в51158100 0.0 1023481
13:00+10в5851100 0.0 1022805
16:00+8вюв4979100 2.1 1023765
19:00+7св41183100 1.4 1023506
22:00+7в4117093 1.4 1023396
19 апреля, пн
пн1901:00+6всв4118392 0.0 1024420
04:00+5всв5128599 0.0 1025488
07:00+4в51181100 0.0 1026471
10:00+6в5963100 0.0 1027653
13:00+10всв685262 0.0 10261154
16:00+10в685179 0.0 10261463
19:00+8в6960100 0.0 1027927
22:00+5в61266100 0.0 1028737
20 апреля, вт
вт2001:00+3в5127551 0.0 1028619
04:00+2вюв61380100 0.0 1028634
07:00+3вюв61470100 0.0 1027675
10:00+4вюв7146298 0.0 1027754
13:00+8вюв81452100 0.0 1026959
16:00+7вюв71553100 0.0 1026862
19:00+7юв71557100 0.0 1024979
22:00+6юв71657100 0.0 1024883